Date,TemperatureHighF,TemperatureAvgF,TemperatureLowF,DewpointHighF,DewpointAvgF,DewpointLowF,HumidityHigh,HumidityAvg,HumidityLow,PressureMaxIn,PressureMinIn,WindSpeedMaxMPH,WindSpeedAvgMPH,GustSpeedMaxMPH,PrecipitationSumIn
2013-1-1,42.3,38.7,36.5,37.7,35.9,34.3,98,90,76,30.11,29.96,4,2,11,0.01
2013-1-2,47.1,39.2,35.6,37.0,34.7,32.3,97,84,64,29.96,29.79,5,3,14,0.00
2013-1-3,46.9,38.9,32.4,39.9,37.5,29.8,99,95,51,29.93,29.70,4,1,13,0.48
2013-1-4,43.3,41.1,38.7,43.1,40.8,38.4,99,99,95,30.13,29.93,5,2,12,0.02
2013-1-5,46.0,42.9,38.8,42.6,41.0,36.2,99,93,82,30.00,29.87,10,2,21,0.10
2013-1-6,46.6,42.4,38.3,42.8,40.8,36.2,99,94,78,29.96,29.73,5,1,14,0.15
2013-1-7,50.7,45.3,42.1,48.5,43.2,39.3,99,93,80,29.95,29.59,13,4,30,0.20
2013-1-8,47.7,43.8,41.2,47.4,42.4,38.5,99,95,79,29.96,29.45,10,2,20,1.04
2013-1-9,45.5,41.9,35.6,45.2,38.5,33.0,99,88,73,29.75,29.47,9,4,22,0.07
2013-1-10,47.3,37.0,31.6,36.9,31.7,28.7,99,83,56,29.97,29.75,5,1,12,0.00
2013-1-11,44.6,35.2,26.2,31.1,22.7,15.1,91,62,30,30.16,29.96,4,1,11,0.00
2013-1-12,42.6,30.4,24.4,30.5,25.5,22.7,98,83,49,30.27,30.15,4,1,10,0.00
2013-1-13,39.0,32.2,24.6,36.1,29.4,23.7,99,90,76,30.31,30.26,4,0,7,0.01
2013-1-14,40.6,37.8,35.8,38.2,35.2,31.2,99,90,81,30.41,30.27,2,0,8,0.04
2013-1-15,43.5,39.1,36.1,39.7,36.9,35.1,99,92,77,30.55,30.41,2,0,6,0.01
2013-1-16,43.0,39.0,36.7,36.3,35.0,34.0,92,86,74,30.52,30.37,4,1,10,0.00
2013-1-17,50.5,38.6,34.9,38.4,35.9,33.7,99,91,60,30.38,30.12,5,1,10,0.00
2013-1-18,44.2,39.0,36.3,38.7,37.0,36.1,99,93,78,30.18,30.09,5,2,10,0.00
2013-1-19,45.7,39.7,36.7,38.9,37.5,36.4,99,92,77,30.22,30.17,5,2,11,0.00
2013-1-20,47.7,38.3,35.2,40.3,37.1,35.0,99,96,74,30.23,30.11,7,3,12,0.00
2013-1-21,44.1,37.2,35.1,38.8,36.4,34.8,99,97,79,30.11,29.96,4,2,14,0.00
2013-1-22,39.9,37.8,35.2,38.2,36.3,34.5,99,94,84,29.96,29.74,4,1,10,0.00
2013-1-23,43.3,41.0,38.3,42.5,40.1,37.3,99,97,92,29.92,29.63,8,2,24,0.10
2013-1-24,43.9,41.0,33.3,42.5,39.5,33.0,99,94,86,30.00,29.80,5,1,12,0.07
2013-1-25,55.8,41.4,32.9,46.8,39.2,32.7,99,93,59,29.87,29.70,2,0,8,0.02
2013-1-26,46.6,41.5,37.9,43.1,40.2,37.7,99,95,79,29.84,29.64,5,1,11,0.09
2013-1-27,42.6,40.1,35.1,41.1,39.3,34.8,99,97,92,29.84,29.78,8,3,15,0.07
2013-1-28,44.8,40.4,34.0,41.0,37.9,33.7,99,91,83,29.87,29.79,8,2,20,0.01
2013-1-29,48.6,45.2,40.3,45.8,42.7,39.4,98,91,82,30.12,29.87,10,2,19,0.02
2013-1-30,52.7,44.8,42.1,47.0,44.2,41.8,99,98,81,30.20,30.12,6,1,11,0.06
2013-1-31,48.4,44.8,38.8,48.1,44.6,38.6,99,99,96,30.19,30.11,4,1,10,0.03